Find Kosmos-2351

NORAD ID: 25327 Int'l Des: 1998-027 Owner: PVO Country: RU operational
MEOELLIPTICALHEO_ELLIPTICALSEMI_SYNCMOLNIYA

Live-Position

3D-Globus wird geladen...

Über Kosmos-2351

Beschreibung wird geladen...

Nächste Überflüge

Passes for default location (London). Set your location on the main map for personalized predictions.

Höhenverlauf

Loading altitude history...

Zweizeiliger Elementsatz

1 25327U 98027A 26102.91307826 .00001147 00000-0 00000-0 0 9995
2 25327 63.6549 126.8816 7074139 180.0460 179.9219 2.00408643204658
Epoch: 12. Apr. 2026 • Age: 48 hours

Aktueller Status

Höhe 38858.7 km
Geschwindigkeit 1.62 km/s
Subsatellitenpunkt -2.38°S, 39.39°W
Startdatum 7. Mai 1998
Alter 27.9 years
Typ other

Technische Details

Klassifizierung Payload
Masse 1250.00 kg
Trockenmasse 1150.00 kg
Gesamtmasse 1250.00 kg
Länge 4.00 m
Durchmesser 2.00 m
Spannweite 5.00 m
Form Cyl + 2 Pan
Hersteller NPOL/KOMET
Bus-Typ Oko
Phasenstatus In Orbit
Besitzer/Staat PVO/RU

Most Searched